{"data":{"norad_id":63989,"intl_designator":"2025-100H","name":"SCS-01 H","alt_names":[],"object_type":"PAYLOAD","status":"ACTIVE","operator":null,"country":"PRC","launch_date":"2025-05-14","launch_site_code":"JSC","launch_vehicle":null,"mission":null,"orbit_class":"UNKNOWN","rcs_meters":null,"size_class":null,"mass_kg":null,"dimensions":null,"purposes":[],"wikipedia_slug":null,"has_3d_model":false,"image_url":null,"decayed_at":null,"tle_current":{"epoch":"2026-09-21T22:04:06.108096Z","epoch_age_seconds":76711,"freshness":"FRESH","line1":"1 63989U 25100H   26264.91951514  .00026645  00000+0  64750-3 0  9995","line2":"2 63989  97.3609 341.7937 0005383 290.4815  69.5853 15.40955316 75730","mean_motion":15.40955316,"eccentricity":0.0005383,"inclination_deg":97.3609,"raan_deg":341.7937,"arg_perigee_deg":290.4815,"mean_anomaly_deg":69.5853,"bstar":0.0006475,"rev_number":7573,"period_min":93.448524110222,"perigee_km":439.61658987117,"apogee_km":446.96053663257,"semimajor_km":6821.4255632519,"source":"CELESTRAK","updated_at":"2026-09-22T09:00:29.479448Z"}}}